Al Hoceima, Morocco

2:23 AM WEST on September 23, 2017 (GMT +0100)
Al Hoceima

Weather History for GMTA - May, 2013

Change the Weather History Date:

Tuesday, May 14, 2013

  Actual Average Record
Temperature  
Mean Temperature 68 °F -  
Max Temperature 73 °F 72 °F 84 °F (1999)
Min Temperature 63 °F 60 °F 53 °F (1998)
Cooling Degree Days 3    
Growing Degree Days 18 (Base 50)    
Moisture  
Dew Point 63 °F    
Average Humidity 81    
Maximum Humidity 88    
Minimum Humidity 74    
Precipitation  
Precipitation 0.00 in - - ()
Sea Level Pressure  
Sea Level Pressure 29.88 in    
Wind  
Wind Speed 6 mph ()    
Max Wind Speed 14 mph    
Max Gust Speed -    
Visibility 4.5 miles    
Events      
Averages and records for this station are not official NWS values.
T = Trace of Precipitation, MM = Missing Value Source: Averaged Metar Reports

Daily Weather History Graph

Daily Weather History Graph

Search for Another Location

Airport or City:

Trip Planner

Search our weather history database for the weather conditions in past years. The results will help you decide how hot, cold, wet, or windy it might be!

Date:

Astronomy

May. 14, 2013 Rise Set
Actual Time 6:12 AM WEST 8:11 PM WEST
Civil Twilight 5:44 AM WEST 8:39 PM WEST
Nautical Twilight 5:10 AM WEST 9:14 PM WEST
Astronomical Twilight 4:33 AM WEST 9:50 PM WEST
Moon 9:38 AM WEST (5/14) 11:51 PM WEST (5/14)
Length of Visible Light 14h 55m
Length of Day
13h 59m
Waxing Crescent, 17% of the Moon is Illuminated
May 14
Waxing Crescent
May 18
First Quarter
May 25
Full
May 31
Last Quarter
Jun 8
New

Hourly Weather History & Observations

Time (WEST) Temp. Dew Point Humidity Pressure Visibility Wind Dir Wind Speed Gust Speed Precip Events Conditions
1:00 AM 66 °F 62 °F 84% 30.02 in 4 mi WNW 6.9 mph - -   Mostly Cloudy
1:00 AM 66.2 °F 62.6 °F 88% 30.01 in 3.7 mi WNW 6.9 mph - N/A   Scattered Clouds
7:00 AM 64 °F 60 °F 81% 29.96 in 3 mi ESE 4.6 mph - -   Mostly Cloudy
7:00 AM 64.4 °F 59.0 °F 83% 29.95 in 3.1 mi ESE 4.6 mph - N/A   Scattered Clouds
8:00 AM - - N/A% 29.92 in 3.7 mi SSE 2.3 mph - N/A   Scattered Clouds
9:00 AM 71.6 °F 64.4 °F 78% 29.89 in 3.7 mi NE 2.3 mph - N/A   Scattered Clouds
10:00 AM 72 °F 66 °F 75% 29.91 in 5 mi North 6.9 mph - -   Scattered Clouds
10:00 AM 71.6 °F 66.2 °F 83% 29.89 in 5.0 mi North 6.9 mph - N/A   Scattered Clouds
11:00 AM 71.6 °F 64.4 °F 78% 29.89 in 5.0 mi NNE 9.2 mph - N/A   Scattered Clouds
12:00 PM 71.6 °F 66.2 °F 83% 29.92 in 5.0 mi WNW 13.8 mph - N/A   Scattered Clouds
1:00 PM 71 °F 65 °F 74% 29.92 in 5 mi North 11.5 mph - -   Scattered Clouds
1:00 PM 71.6 °F 64.4 °F 78% 29.92 in 5.0 mi North 11.5 mph - N/A   Mostly Cloudy
2:00 PM 69.8 °F 64.4 °F 83% 29.89 in 5.0 mi North 9.2 mph - N/A   Mostly Cloudy
3:00 PM 69.8 °F 62.6 °F 78% 29.89 in 5.0 mi NNE 9.2 mph - N/A   Mostly Cloudy
4:00 PM 68 °F 62 °F 76% 29.87 in 5 mi North 6.9 mph - -   Overcast
4:00 PM 68.0 °F 62.6 °F 83% 29.86 in 5.0 mi North 6.9 mph - N/A   Mostly Cloudy
5:00 PM 68.0 °F 62.6 °F 83% 29.83 in 5.0 mi NE 4.6 mph - N/A   Mostly Cloudy
6:00 PM 68.0 °F 62.6 °F 83% 29.83 in 5.0 mi North 2.3 mph - N/A   Mostly Cloudy
7:00 PM 68 °F 62 °F 75% 29.81 in 5 mi NNE 2.3 mph - -   Scattered Clouds
7:00 PM 68.0 °F 62.6 °F 83% 29.80 in 5.0 mi NNE 2.3 mph - N/A   Mostly Cloudy
8:00 PM 66.2 °F 60.8 °F 83% 29.80 in 5.0 mi North 4.6 mph - N/A   Mostly Cloudy
9:00 PM 66.2 °F 62.6 °F 88% 29.80 in 3.7 mi North 2.3 mph - N/A   Mostly Cloudy
10:00 PM 66 °F 62 °F 85% 29.83 in 4 mi ENE 4.6 mph - -   Scattered Clouds
10:00 PM 66.2 °F 62.6 °F 88% 29.83 in 3.7 mi ENE 4.6 mph - N/A   Mostly Cloudy